| time (UTC) | temp F | wind direction | speed knots | gust knots | rain 1hr in | rain 24hr in | rain mn in | humidity % | barometer mb |
| 20260506153130 | 94 | 0.0 | 0.0 | 0.00 | 0.00 | 0.00 | 22 | 987.7 | |
| 20260506152130 | 94 | 0.0 | 0.0 | 0.00 | 0.00 | 0.00 | 22 | 987.9 | |
| 20260506151131 | 94 | 0.0 | 0.0 | 0.00 | 0.00 | 0.00 | 21 | 987.8 | |
| 20260506150131 | 96 | 0.0 | 0.0 | 0.00 | 0.00 | 0.00 | 21 | 987.9 | |
| 20260506145131 | 96 | 0.0 | 0.0 | 0.00 | 0.00 | 0.00 | 21 | 988.0 | |
| 20260506144130 | 94 | 0.0 | 0.0 | 0.00 | 0.00 | 0.00 | 22 | 988.0 | |
| 20260506143130 | 96 | 0.0 | 0.0 | 0.00 | 0.00 | 0.00 | 20 | 987.9 | |
| 20260506141130 | 93 | 0.0 | 0.0 | 0.00 | 0.00 | 0.00 | 21 | 988.0 | |
| 20260506140130 | 96 | 0.0 | 0.0 | 0.00 | 0.00 | 0.00 | 21 | 988.1 | |
| 20260506135130 | 94 | 0.0 | 0.0 | 0.00 | 0.00 | 0.00 | 21 | 988.0 | |
| 20260506134130 | 96 | 0.0 | 0.0 | 0.00 | 0.00 | 0.00 | 20 | 988.2 | |
| 20260506133130 | 90 | 0.0 | 0.0 | 0.00 | 0.00 | 0.00 | 21 | 988.1 | |
| 20260506132131 | 94 | 0.0 | 0.0 | 0.00 | 0.00 | 0.00 | 20 | 988.3 | |
| 20260506131130 | 93 | 0.0 | 0.0 | 0.00 | 0.00 | 0.00 | 21 | 988.2 | |
| 20260506124130 | 90 | 0.0 | 0.0 | 0.00 | 0.00 | 0.00 | 25 | 988.5 | |
| 20260506123131 | 92 | 0.0 | 0.0 | 0.00 | 0.00 | 0.00 | 24 | 988.6 | |
| 20260506121130 | 90 | 0.0 | 0.0 | 0.00 | 0.00 | 0.00 | 24 | 988.7 | |
| 20260506120132 | 89 | 0.0 | 0.0 | 0.00 | 0.00 | 0.00 | 27 | 988.9 | |
| 20260506115131 | 86 | 0.0 | 0.0 | 0.00 | 0.00 | 0.00 | 28 | 989.2 | |
| 20260506114130 | 85 | 0.0 | 0.0 | 0.00 | 0.00 | 0.00 | 27 | 989.2 | |
| 20260506112130 | 84 | 0.0 | 0.0 | 0.00 | 0.00 | 0.00 | 29 | 989.5 | |
| 20260506111130 | 84 | 0.0 | 0.0 | 0.00 | 0.00 | 0.00 | 27 | 989.5 | |
| 20260506110130 | 87 | 0.0 | 0.0 | 0.00 | 0.00 | 0.00 | 30 | 989.6 | |
| 20260506104130 | 84 | 0.0 | 0.0 | 0.00 | 0.00 | 0.00 | 32 | 989.7 | |
| 20260506103130 | 80 | 0.0 | 0.0 | 0.00 | 0.00 | 0.00 | 37 | 989.8 | |
| 20260506102130 | 78 | 0.0 | 0.0 | 0.00 | 0.00 | 0.00 | 39 | 989.9 | |
| 20260506101130 | 76 | 0.0 | 0.0 | 0.00 | 0.00 | 0.00 | 40 | 990.0 | |
| 20260506095130 | 75 | 0.0 | 0.0 | 0.00 | 0.00 | 0.00 | 40 | 990.1 | |
| 20260506094129 | 73 | 0.0 | 0.0 | 0.00 | 0.00 | 0.00 | 39 | 990.2 | |
| 20260506093130 | 73 | 0.0 | 0.0 | 0.00 | 0.00 | 0.00 | 42 | 990.2 | |
| 20260506092130 | 71 | 0.0 | 0.0 | 0.00 | 0.00 | 0.00 | 43 | 990.3 | |
| 20260506091130 | 71 | 0.0 | 0.0 | 0.00 | 0.00 | 0.00 | 45 | 990.4 | |
| 20260506090130 | 70 | 0.0 | 0.0 | 0.00 | 0.00 | 0.00 | 46 | 990.4 | |
| 20260506085130 | 69 | 0.0 | 0.0 | 0.00 | 0.00 | 0.00 | 50 | 990.5 | |
| 20260506083130 | 67 | 0.0 | 0.0 | 0.00 | 0.00 | 0.00 | 58 | 990.4 | |
| 20260506081129 | 65 | 0.0 | 0.0 | 0.00 | 0.00 | 0.00 | 59 | 990.6 | |
| 20260506080130 | 65 | 0.0 | 0.0 | 0.00 | 0.00 | 0.00 | 60 | 990.6 | |
| 20260506072130 | 61 | 0.0 | 0.0 | 0.00 | 0.00 | 0.00 | 65 | 990.7 | |
| 20260506071129 | 60 | 0.0 | 0.0 | 0.00 | 0.00 | 0.00 | 66 | 990.7 | |
| 20260506070130 | 59 | 0.0 | 0.0 | 0.00 | 0.00 | 0.00 | 68 | 990.8 | |
| 20260506062129 | 56 | 0.0 | 0.0 | 0.00 | 0.00 | 0.00 | 74 | 991.0 | |
| 20260506061130 | 55 | 0.0 | 0.0 | 0.00 | 0.00 | 0.00 | 72 | 991.0 | |
| 20260506060129 | 56 | 0.0 | 0.0 | 0.00 | 0.00 | 0.00 | 74 | 991.0 | |
| 20260506050127 | 49 | 0.0 | 0.0 | 0.00 | 0.00 | 0.00 | 89 | 990.7 | |
| 20260506045126 | 48 | 0.0 | 0.0 | 0.00 | 0.00 | 0.00 | 92 | 990.6 | |
| 20260506044126 | 47 | 0.0 | 0.0 | 0.00 | 0.00 | 0.00 | 92 | 990.4 | |
| 20260506042126 | 47 | 0.0 | 0.0 | 0.00 | 0.00 | 0.00 | 92 | 990.5 | |
| 20260506041126 | 47 | 0.0 | 0.0 | 0.00 | 0.00 | 0.00 | 94 | 990.4 | |
| 20260506040126 | 46 | 0.0 | 0.0 | 0.00 | 0.00 | 0.00 | 97 | 990.5 | |
| 20260506035127 | 46 | 0.0 | 0.0 | 0.00 | 0.00 | 0.00 | 97 | 990.3 | |
| 20260506034126 | 45 | 0.0 | 0.0 | 0.00 | 0.00 | 0.00 | 100 | 990.2 | |
| 20260506033126 | 45 | 0.0 | 0.0 | 0.00 | 0.00 | 0.00 | 100 | 990.3 | |
| 20260506032126 | 46 | 0.0 | 0.0 | 0.00 | 0.00 | 0.00 | 99 | 990.3 | |
| 20260506031127 | 46 | 0.0 | 0.0 | 0.00 | 0.00 | 0.00 | 97 | 990.3 | |
| 20260506030126 | 46 | 0.0 | 0.0 | 0.00 | 0.00 | 0.00 | 100 | 990.2 | |
| 20260506025126 | 45 | 0.0 | 0.0 | 0.00 | 0.00 | 0.00 | 100 | 990.2 | |
| 20260506024126 | 45 | 0.0 | 0.0 | 0.00 | 0.00 | 0.00 | 100 | 990.1 | |
| 20260506023126 | 47 | 0.0 | 0.0 | 0.00 | 0.00 | 0.00 | 95 | 990.0 | |
| 20260506022127 | 47 | 0.0 | 0.0 | 0.00 | 0.00 | 0.00 | 95 | 990.1 | |
| 20260506021126 | 47 | 0.0 | 0.0 | 0.00 | 0.00 | 0.00 | 98 | 990.0 | |
| 20260506020126 | 46 | 0.0 | 0.0 | 0.00 | 0.00 | 0.00 | 98 | 990.1 | |
| 20260506015126 | 46 | 0.0 | 0.0 | 0.00 | 0.00 | 0.00 | 97 | 990.0 | |
| 20260506014126 | 47 | 0.0 | 0.0 | 0.00 | 0.00 | 0.00 | 97 | 989.9 | |
| 20260506013126 | 48 | 0.0 | 0.0 | 0.00 | 0.00 | 0.00 | 94 | 989.8 | |
| 20260506012126 | 49 | 0.0 | 0.0 | 0.00 | 0.00 | 0.00 | 90 | 989.9 | |
| 20260506011126 | 48 | 0.0 | 0.0 | 0.00 | 0.00 | 0.00 | 92 | 989.9 | |
| 20260506010126 | 48 | 0.0 | 0.0 | 0.00 | 0.00 | 0.00 | 93 | 989.9 | |
| 20260506005126 | 49 | 0.0 | 0.0 | 0.00 | 0.00 | 0.00 | 92 | 989.8 | |
| 20260506004127 | 48 | 0.0 | 0.0 | 0.00 | 0.00 | 0.00 | 94 | 989.9 | |
| 20260506002126 | 49 | 0.0 | 0.0 | 0.00 | 0.00 | 0.00 | 92 | 989.7 | |
| 20260506001126 | 49 | 0.0 | 0.0 | 0.00 | 0.00 | 0.00 | 87 | 989.9 | |
| 20260506000126 | 50 | 0.0 | 0.0 | 0.00 | 0.00 | 0.00 | 84 | 989.7 | |
| 20260505235126 | 50 | 0.0 | 0.0 | 0.00 | 0.00 | 0.00 | 82 | 989.8 | |
| 20260505232125 | 52 | 0.0 | 0.0 | 0.00 | 0.00 | 0.00 | 75 | 989.5 | |
| 20260505231125 | 53 | 0.0 | 0.0 | 0.00 | 0.00 | 0.00 | 73 | 989.7 | |
| 20260505230126 | 53 | 0.0 | 0.0 | 0.00 | 0.00 | 0.00 | 70 | 989.7 | |
| 20260505225126 | 53 | 0.0 | 0.0 | 0.00 | 0.00 | 0.00 | 71 | 989.6 | |
| 20260505223125 | 53 | 0.0 | 0.0 | 0.00 | 0.00 | 0.00 | 75 | 989.6 | |
| 20260505222125 | 55 | 0.0 | 0.0 | 0.00 | 0.00 | 0.00 | 71 | 989.6 | |
| 20260505221126 | 55 | 0.0 | 0.0 | 0.00 | 0.00 | 0.00 | 70 | 989.7 | |
| 20260505220125 | 56 | 0.0 | 0.0 | 0.00 | 0.00 | 0.00 | 67 | 989.6 | |
| 20260505214125 | 56 | 0.0 | 0.0 | 0.00 | 0.00 | 0.00 | 69 | 989.4 | |
| 20260505213125 | 56 | 0.0 | 0.0 | 0.00 | 0.00 | 0.00 | 69 | 989.4 | |
| 20260505212131 | 55 | 0.0 | 0.0 | 0.00 | 0.00 | 0.00 | 69 | 989.2 | |
| 20260505211125 | 56 | 0.0 | 0.0 | 0.00 | 0.00 | 0.00 | 69 | 989.2 | |
| 20260505210125 | 58 | 0.0 | 0.0 | 0.00 | 0.00 | 0.00 | 67 | 989.3 | |
| 20260505205125 | 58 | 0.0 | 0.0 | 0.00 | 0.00 | 0.00 | 67 | 989.3 | |
| 20260505204125 | 59 | 0.0 | 0.0 | 0.00 | 0.00 | 0.00 | 70 | 989.2 | |
| 20260505203125 | 59 | 0.0 | 0.0 | 0.00 | 0.00 | 0.00 | 72 | 989.2 | |
| 20260505202125 | 60 | 0.0 | 0.0 | 0.00 | 0.00 | 0.00 | 72 | 989.1 | |
| 20260505200125 | 59 | 0.0 | 0.0 | 0.00 | 0.00 | 0.00 | 73 | 989.0 | |
| 20260505195124 | 60 | 0.0 | 0.0 | 0.00 | 0.00 | 0.00 | 68 | 988.9 | |
| 20260505194124 | 60 | 0.0 | 0.0 | 0.00 | 0.00 | 0.00 | 68 | 988.9 | |
| 20260505193124 | 61 | 0.0 | 0.0 | 0.00 | 0.00 | 0.00 | 66 | 988.9 | |
| 20260505192124 | 62 | 0.0 | 0.0 | 0.00 | 0.00 | 0.00 | 63 | 988.9 | |
| 20260505191125 | 62 | 0.0 | 0.0 | 0.00 | 0.00 | 0.00 | 61 | 988.9 | |
| 20260505185125 | 63 | 0.0 | 0.0 | 0.00 | 0.00 | 0.00 | 60 | 988.8 | |
| 20260505184124 | 65 | 0.0 | 0.0 | 0.00 | 0.00 | 0.00 | 51 | 988.8 | |
| 20260505183124 | 65 | 0.0 | 0.0 | 0.00 | 0.00 | 0.00 | 51 | 988.7 | |
| 20260505182124 | 66 | 0.0 | 0.0 | 0.00 | 0.00 | 0.00 | 52 | 988.6 | |
| 20260505181125 | 66 | 0.0 | 0.0 | 0.00 | 0.00 | 0.00 | 53 | 988.5 | |
| 20260505180125 | 67 | 0.0 | 0.0 | 0.00 | 0.00 | 0.00 | 50 | 988.5 | |
| 20260505175125 | 68 | 0.0 | 0.0 | 0.00 | 0.00 | 0.00 | 47 | 988.6 | |
| 20260505174124 | 69 | 0.0 | 0.0 | 0.00 | 0.00 | 0.00 | 44 | 988.4 | |
| 20260505173125 | 69 | 0.0 | 0.0 | 0.00 | 0.00 | 0.00 | 43 | 988.5 | |
| 20260505172124 | 70 | 0.0 | 0.0 | 0.00 | 0.00 | 0.00 | 41 | 988.4 | |
| 20260505171124 | 73 | 0.0 | 0.0 | 0.00 | 0.00 | 0.00 | 37 | 988.4 | |
| 20260505170125 | 76 | 0.0 | 0.0 | 0.00 | 0.00 | 0.00 | 34 | 988.4 | |
| 20260505164124 | 78 | 0.0 | 0.0 | 0.00 | 0.00 | 0.00 | 32 | 988.3 | |
| 20260505163124 | 82 | 0.0 | 0.0 | 0.00 | 0.00 | 0.00 | 29 | 988.3 | |
| 20260505162124 | 84 | 0.0 | 0.0 | 0.00 | 0.00 | 0.00 | 26 | 988.3 | |
| 20260505161124 | 86 | 0.0 | 0.0 | 0.00 | 0.00 | 0.00 | 26 | 988.4 |